Orbital Elements at Epoch 2459000.5 (2020-May-31.0) TDB
Reference: JPL 16 (heliocentric ecliptic J2000)
Element | Value | Uncertainty (1-sigma) | Units |
e | .084813238782342 | 6.7565e-08 | |
a | 2.774891044065487 | 1.764e-08 | au |
q | 2.539543547350179 | 1.8301e-07 | au |
i | 3.304668251474128 | 4.8226e-06 | deg |
node | 121.6099365274344 | 9.691e-05 | deg |
peri | 219.9121127258822 | 0.00010112 | deg |
M | 167.452951295071 | 3.1427e-05 | deg |
tp | 2458215.160149906829 (2018-Apr-06.66014991) | 0.00014549 | TDB |
period | 1688.368845380055 4.62 | 1.61e-05 4.408e-08 | d yr |
n | .2132235506388791 | 2.0332e-09 | deg/d |
Q | 3.010238540780796 | 1.9136e-08 | au |
|
| | Orbit Determination Parameters
Additional Information
|